ROMMA est une association bénévole à but non lucratif. Votre soutien est indispensable : ADHERER à ROMMA ou FAIRE un DON

Chambon - (38, Isère)

Oisans (2460 m)   Longitude: 06° 10' 42" E   Latitude: 45° 01' 32" N Station partenaire n°803
 

Détail journalier du     <<     >>

Température Humidité Vent Dir Rafale Dir. rafale Neige 1 Neige 2
Heure (°C) (%) (km/h) (km/h) (cm) (cm)
01:00 12.44321SO40SO00
02:00 12.64123SSO40SSO00
03:00 12.44017SSO38SSO00
04:00 12.04412SSO31SSO00
05:00 12.04511S26SSO00
06:00 13.04316S46SSO00
07:00 12.85119SSO39SSO00
08:00 12.85317SSO31SSO00
09:00 13.55213SSO33SSO00
10:00 14.65011SSE43SSE00
11:00 15.54912SSE43SSE00
12:00 16.34812S44S10
13:00 17.2479S43S20
14:00 17.44314SSE54SO21
15:00 17.73619SO51SO10
16:00 18.33720SO42SO10
17:00 18.13822SO49SO21
18:00 17.64027SO44SO21
19:00 16.24931OSO50OSO11
20:00 15.85119S49OSO00
21:00 13.95512SSE38S10
22:00 13.74811SE32SE20
23:00 13.3527SSE26SSE10
minuit 12.2626S26S10

Graphique du 18-08-2019

 

Serveur OMMA